TimeMDT,TemperatureF,Dew PointF,Humidity,Sea Level PressureIn,VisibilityMPH,Wind Direction,Wind SpeedMPH,Gust SpeedMPH,PrecipitationIn,Events,Conditions,WindDirDegrees,DateUTC
12:53 AM,62.1,55.0,78,29.99,10.0,ESE,16.1,-,N/A,,Clear,120,2013-06-13 06:53:00
1:53 AM,60.1,54.0,80,29.97,10.0,ESE,13.8,-,N/A,,Clear,110,2013-06-13 07:53:00
2:53 AM,59.0,54.0,83,29.95,10.0,East,12.7,-,N/A,,Clear,100,2013-06-13 08:53:00
3:53 AM,59.0,53.1,81,29.91,10.0,ESE,17.3,-,N/A,,Clear,110,2013-06-13 09:53:00
4:53 AM,57.9,53.1,84,29.90,10.0,East,16.1,-,N/A,,Clear,100,2013-06-13 10:53:00
5:53 AM,57.9,53.1,84,29.89,10.0,ESE,17.3,-,N/A,,Clear,110,2013-06-13 11:53:00
6:53 AM,60.1,54.0,80,29.91,10.0,ESE,18.4,26.5,N/A,,Clear,120,2013-06-13 12:53:00
7:53 AM,63.0,55.0,75,29.90,10.0,SE,17.3,-,N/A,,Mostly Cloudy,130,2013-06-13 13:53:00
8:53 AM,63.0,54.0,72,29.86,10.0,ESE,19.6,26.5,N/A,,Partly Cloudy,110,2013-06-13 14:53:00
9:53 AM,63.0,57.0,81,29.88,10.0,ESE,18.4,24.2,0.00,,Overcast,110,2013-06-13 15:53:00
10:53 AM,66.9,55.9,68,29.86,10.0,ESE,19.6,27.6,N/A,,Clear,120,2013-06-13 16:53:00
11:53 AM,70.0,55.9,61,29.87,10.0,SE,21.9,31.1,N/A,,Clear,130,2013-06-13 17:53:00
12:53 PM,70.0,55.9,61,29.86,10.0,ESE,18.4,26.5,N/A,,Overcast,120,2013-06-13 18:53:00
1:53 PM,71.1,55.9,59,29.86,10.0,SE,16.1,-,N/A,,Overcast,140,2013-06-13 19:53:00
2:53 PM,72.0,57.9,61,29.86,10.0,SE,6.9,-,N/A,,Overcast,130,2013-06-13 20:53:00
3:53 PM,75.0,59.0,57,29.80,10.0,SE,9.2,-,N/A,,Clear,130,2013-06-13 21:53:00
4:11 PM,73.4,59.0,61,29.81,1.8,SSE,5.8,-,N/A,,Haze,150,2013-06-13 22:11:00
4:25 PM,75.2,60.8,61,29.82,10.0,SSW,4.6,-,N/A,,Clear,210,2013-06-13 22:25:00
4:53 PM,75.9,57.9,54,29.79,10.0,Calm,Calm,-,N/A,,Clear,0,2013-06-13 22:53:00
5:53 PM,75.9,57.9,54,29.78,10.0,Calm,Calm,-,N/A,,Clear,0,2013-06-13 23:53:00
6:53 PM,75.9,57.0,52,29.78,10.0,Calm,Calm,-,N/A,,Clear,0,2013-06-14 00:53:00
7:53 PM,73.0,61.0,66,29.80,10.0,Calm,Calm,-,N/A,,Scattered Clouds,0,2013-06-14 01:53:00
8:53 PM,69.1,60.1,73,29.81,10.0,WNW,12.7,23.0,N/A,,Scattered Clouds,290,2013-06-14 02:53:00
9:05 PM,66.2,57.2,73,29.84,10.0,WNW,19.6,29.9,N/A,Thunderstorm,Mostly Cloudy,290,2013-06-14 03:05:00
9:43 PM,62.6,57.2,82,29.87,10.0,WNW,15.0,-,0.03,Rain,Light Rain,300,2013-06-14 03:43:00
9:53 PM,62.1,57.9,86,29.85,7.0,NW,20.7,26.5,0.04,Rain,Rain,310,2013-06-14 03:53:00
10:53 PM,61.0,57.9,90,29.82,10.0,North,13.8,-,0.02,,Mostly Cloudy,10,2013-06-14 04:53:00
11:53 PM,60.1,55.9,86,29.76,10.0,NNE,16.1,-,0.00,Rain,Light Rain,20,2013-06-14 05:53:00